ELEKTRON 1 DEB, 750

Orbit data source: Space-Track

ELEKTRON 1 DEB, 750 is space debris in LEO originally from a launch on Thu, 30 Jan 1964 UTC launched from the Tyuratam Missile And Space Complex (TTMTR). Debris objects in space refer to the collection of defunct objects orbiting the Earth. Examples of debris include non-operational satellites, rocket bodies, and fragments generated from explosions, collisions, or faulty payload assembly.

Loading next visibility...
Identifier
750, 1964-006C
Orbit
LEO
Country
Flag of CISCIS
Related business
Manufacturer
OKB-1
Mission
Spacecraft
Bus & Motor
ADAPTER, Unknown motor
Mass
Unknown
Launch date (UTC)
1964-01-30 (62 years ago)
Launch vehicle
Unknown
Launch site
Tyuratam Missile And Space Complex (TTMTR)
Object type
Payload
Rocket body
Debris
Shape & HBR
Unknown shape, 0.3 m
Radar Cross Section
Medium (>0.1 m² and <1 m²)

Expand to show TLE details & history
Last TLE update: 1 day ago

TLE from 1 day ago
0 ELEKTRON 1 DEB
1 00750U 64006C   25310.58758570  .00019357  00000-0  21058-2 0  9997
2 00750  60.7571 166.3000 1412980 317.4121  32.5265 12.41844261818902
Epoch: 2025-11-06T14:06Z
TLE epoch observation values (Epoch: 2025-11-06T14:06:07.404Z)
Latitude
-0.00003°
Longitude
-91.27463°
Altitude
616.73 km
Speed
7.963 km/s
True Right ascension
11h 05m 11s
True Declination
0° 00' 00"
Sunlit
Object was in daylight at epoch
Visualization orbit readout
Latitude
Unknown
Longitude
Unknown
Altitude
Unknown
Speed
Unknown
Apparent Right ascension
Unknown
Apparent Declination
Unknown
Sunlit
N/A
Visualization observer readout
Local Sidereal Time
18:11:50
Azimuth
Unknown
Elevation
Unknown
Doppler factor
Unknown
Orbital elements
Apogee altitude
2,610.861 km
Perigee altitude
385.101 km
Semi-major axis
7,876.118 km
Eccentricity
0.1413
Inclination
60.7571°
RAAN
166.3°
Arg. of periapsis
317.4121°
True anomaly
42.68862°
Mean anomaly
32.5265°
Eccentric anomaly
37.4492°
Mean motion
3.10509 °/min
Orbital period
115.94 mins
BSTAR
0.0021058
Loading maneuver chart data...
Computing Atmospheric mass density...

Documentation

Showing up to 5 results
|